Time,TemperatureF,DewpointF,PressureIn,WindDirection,WindDirectionDegrees,WindSpeedMPH,WindSpeedGustMPH,Humidity,HourlyPrecipIn,Conditions,Clouds,dailyrainin,SolarRadiationWatts/m^2,SoftwareType,DateUTC
2013-03-11 00:02:00,34.0,33.0,-100.00,SE,127,1.0,3.0,97,0.00,,,0.23,0.000000,,2013-03-11 07:02:00,
2013-03-11 00:12:00,34.0,33.0,-100.00,SE,127,1.0,3.0,97,0.00,,,0.23,0.000000,,2013-03-11 07:12:00,
2013-03-11 00:21:00,34.0,33.0,-100.00,SE,127,1.0,3.0,97,0.00,,,0.23,0.000000,,2013-03-11 07:21:00,
2013-03-11 00:52:00,35.0,34.0,-100.00,ESE,112,1.0,3.0,98,0.00,,,0.23,0.000000,,2013-03-11 07:52:00,
2013-03-11 01:02:00,35.0,34.0,-100.00,ESE,112,1.0,3.0,98,0.00,,,0.23,0.000000,,2013-03-11 08:02:00,
2013-03-11 01:12:00,35.0,34.0,-100.00,ESE,112,1.0,3.0,98,0.00,,,0.23,0.000000,,2013-03-11 08:12:00,
2013-03-11 01:22:00,35.0,34.0,-100.00,ESE,112,1.0,3.0,98,0.00,,,0.23,0.000000,,2013-03-11 08:22:00,
2013-03-11 01:52:00,34.0,33.0,-100.00,SSW,195,1.0,3.0,97,0.00,,,0.23,0.000000,,2013-03-11 08:52:00,
2013-03-11 02:02:00,34.0,33.0,-100.00,SSW,195,1.0,3.0,97,0.00,,,0.23,0.000000,,2013-03-11 09:02:00,
2013-03-11 02:12:00,34.0,33.0,-100.00,SSW,195,1.0,3.0,97,0.00,,,0.23,0.000000,,2013-03-11 09:12:00,
2013-03-11 02:22:00,34.0,33.0,-100.00,SSW,195,1.0,3.0,97,0.00,,,0.23,0.000000,,2013-03-11 09:22:00,
2013-03-11 02:52:00,34.0,34.0,-100.00,SSE,156,0.0,3.0,98,0.00,,,0.23,0.000000,,2013-03-11 09:52:00,
2013-03-11 03:02:00,34.0,34.0,-100.00,SSE,156,0.0,3.0,98,0.00,,,0.23,0.000000,,2013-03-11 10:02:00,
2013-03-11 03:12:00,34.0,34.0,-100.00,SSE,156,0.0,3.0,98,0.00,,,0.23,0.000000,,2013-03-11 10:12:00,
2013-03-11 03:21:00,34.0,34.0,-100.00,SSE,156,0.0,3.0,98,0.00,,,0.23,0.000000,,2013-03-11 10:21:00,
2013-03-11 03:52:00,34.0,34.0,-100.00,SE,140,0.0,2.0,98,0.00,,,0.23,0.000000,,2013-03-11 10:52:00,
2013-03-11 04:02:00,34.0,34.0,-100.00,SE,140,0.0,2.0,98,0.00,,,0.23,0.000000,,2013-03-11 11:02:00,
2013-03-11 04:12:00,34.0,34.0,-100.00,SE,140,0.0,2.0,98,0.00,,,0.23,0.000000,,2013-03-11 11:12:00,
2013-03-11 04:22:00,34.0,34.0,-100.00,SE,140,0.0,2.0,98,0.00,,,0.23,0.000000,,2013-03-11 11:22:00,
2013-03-11 04:53:00,33.0,32.0,-100.00,South,187,0.0,2.0,97,0.00,,,-99.99,0.000000,,2013-03-11 11:53:00,
2013-03-11 05:02:00,33.0,32.0,-100.00,South,187,0.0,2.0,97,0.00,,,-99.99,0.000000,,2013-03-11 12:02:00,
2013-03-11 05:12:00,33.0,32.0,-100.00,South,187,0.0,2.0,97,0.00,,,-99.99,0.000000,,2013-03-11 12:12:00,
2013-03-11 05:21:00,33.0,32.0,-100.00,South,187,0.0,2.0,97,0.00,,,-99.99,0.000000,,2013-03-11 12:21:00,
2013-03-11 05:53:00,33.0,32.0,-100.00,SSE,153,1.0,3.0,97,0.00,,,-99.99,0.000000,,2013-03-11 12:53:00,
2013-03-11 06:02:00,33.0,32.0,-100.00,SSE,153,1.0,3.0,97,0.00,,,-99.99,0.000000,,2013-03-11 13:02:00,
2013-03-11 06:12:00,33.0,32.0,-100.00,SSE,153,1.0,3.0,97,0.00,,,-99.99,0.000000,,2013-03-11 13:12:00,
2013-03-11 06:21:00,33.0,32.0,-100.00,SSE,153,1.0,3.0,97,0.00,,,-99.99,0.000000,,2013-03-11 13:21:00,
2013-03-11 06:52:00,32.0,31.0,-100.00,ESE,113,0.0,1.0,97,0.00,,,0.23,0.000000,,2013-03-11 13:52:00,
2013-03-11 07:02:00,32.0,31.0,-100.00,ESE,113,0.0,1.0,97,0.00,,,0.23,0.000000,,2013-03-11 14:02:00,
2013-03-11 07:12:00,32.0,31.0,-100.00,ESE,113,0.0,1.0,97,0.00,,,0.23,0.000000,,2013-03-11 14:12:00,
2013-03-11 07:22:00,32.0,31.0,-100.00,ESE,113,0.0,1.0,97,0.00,,,0.23,0.000000,,2013-03-11 14:22:00,
2013-03-11 07:53:00,33.0,32.0,-100.00,South,183,1.0,3.0,97,0.00,,,0.23,0.000000,,2013-03-11 14:53:00,
2013-03-11 08:02:00,33.0,32.0,-100.00,South,183,1.0,3.0,97,0.00,,,0.23,0.000000,,2013-03-11 15:02:00,
2013-03-11 08:12:00,33.0,32.0,-100.00,South,183,1.0,3.0,97,0.00,,,0.23,0.000000,,2013-03-11 15:12:00,
2013-03-11 08:22:00,33.0,32.0,-100.00,South,183,1.0,3.0,97,0.00,,,0.23,0.000000,,2013-03-11 15:22:00,
2013-03-11 08:53:00,33.0,32.0,-100.00,SE,124,0.0,2.0,97,0.01,,,0.22,17.000000,,2013-03-11 15:53:00,
2013-03-11 09:02:00,33.0,32.0,-100.00,SE,124,0.0,2.0,97,0.01,,,0.22,17.000000,,2013-03-11 16:02:00,
2013-03-11 09:12:00,33.0,32.0,-100.00,SE,124,0.0,2.0,97,0.01,,,0.22,17.000000,,2013-03-11 16:12:00,
2013-03-11 09:22:00,33.0,32.0,-100.00,SE,124,0.0,2.0,97,0.01,,,0.22,17.000000,,2013-03-11 16:22:00,
2013-03-11 09:52:00,36.0,35.0,-100.00,East,100,1.0,0.0,95,0.00,,,0.18,84.000000,,2013-03-11 16:52:00,
2013-03-11 10:02:00,36.0,35.0,-100.00,East,100,1.0,0.0,95,0.00,,,0.18,84.000000,,2013-03-11 17:02:00,
2013-03-11 10:13:00,36.0,35.0,-100.00,East,100,1.0,0.0,95,0.00,,,0.18,84.000000,,2013-03-11 17:13:00,
2013-03-11 10:24:00,36.0,35.0,-100.00,East,100,1.0,0.0,95,0.00,,,0.18,84.000000,,2013-03-11 17:24:00,
2013-03-11 10:53:00,41.0,37.0,-100.00,ESE,118,0.0,3.0,86,0.00,,,0.14,187.000000,,2013-03-11 17:53:00,
2013-03-11 11:02:00,41.0,37.0,-100.00,ESE,118,0.0,3.0,86,0.00,,,0.14,187.000000,,2013-03-11 18:02:00,
2013-03-11 11:12:00,41.0,37.0,-100.00,ESE,118,0.0,3.0,86,0.00,,,0.14,187.000000,,2013-03-11 18:12:00,
2013-03-11 11:53:00,45.0,40.0,-100.00,NE,49,0.0,3.0,82,0.00,,,0.12,269.000000,,2013-03-11 18:53:00,
2013-03-11 12:02:00,45.0,40.0,-100.00,NE,49,0.0,3.0,82,0.00,,,0.12,269.000000,,2013-03-11 19:02:00,
2013-03-11 12:12:00,45.0,40.0,-100.00,NE,49,0.0,3.0,82,0.00,,,0.12,269.000000,,2013-03-11 19:12:00,
2013-03-11 12:22:00,45.0,40.0,-100.00,NE,49,0.0,3.0,82,0.00,,,0.12,269.000000,,2013-03-11 19:22:00,
2013-03-11 12:53:00,45.0,39.0,-100.00,NW,318,1.0,4.0,79,0.00,,,0.08,291.000000,,2013-03-11 19:53:00,
2013-03-11 13:02:00,45.0,39.0,-100.00,NW,318,1.0,4.0,79,0.00,,,0.08,291.000000,,2013-03-11 20:02:00,
2013-03-11 13:12:00,45.0,39.0,-100.00,NW,318,1.0,4.0,79,0.00,,,0.08,291.000000,,2013-03-11 20:12:00,
2013-03-11 13:22:00,45.0,39.0,-100.00,NW,318,1.0,4.0,79,0.00,,,0.08,291.000000,,2013-03-11 20:22:00,
2013-03-11 13:53:00,44.0,39.0,-100.00,WNW,301,3.0,7.0,83,0.00,,,0.05,281.000000,,2013-03-11 20:53:00,
2013-03-11 14:02:00,44.0,39.0,-100.00,WNW,301,3.0,7.0,83,0.00,,,0.05,281.000000,,2013-03-11 21:02:00,
2013-03-11 14:12:00,44.0,39.0,-100.00,WNW,301,3.0,7.0,83,0.00,,,0.05,281.000000,,2013-03-11 21:12:00,
2013-03-11 14:22:00,44.0,39.0,-100.00,WNW,301,3.0,7.0,83,0.00,,,0.05,281.000000,,2013-03-11 21:22:00,
2013-03-11 14:53:00,42.0,39.0,-100.00,WNW,293,2.0,7.0,88,0.00,,,0.03,191.000000,,2013-03-11 21:53:00,
2013-03-11 15:02:00,42.0,39.0,-100.00,WNW,293,2.0,7.0,88,0.00,,,0.03,191.000000,,2013-03-11 22:02:00,
2013-03-11 15:12:00,42.0,39.0,-100.00,WNW,293,2.0,7.0,88,0.00,,,0.03,191.000000,,2013-03-11 22:12:00,
2013-03-11 15:22:00,42.0,39.0,-100.00,WNW,293,2.0,7.0,88,0.00,,,0.03,191.000000,,2013-03-11 22:22:00,
2013-03-11 15:53:00,41.0,39.0,-100.00,North,8,2.0,5.0,91,0.00,,,0.02,176.000000,,2013-03-11 22:53:00,
2013-03-11 16:02:00,41.0,39.0,-100.00,North,8,2.0,5.0,91,0.00,,,0.02,176.000000,,2013-03-11 23:02:00,
2013-03-11 16:12:00,41.0,39.0,-100.00,North,8,2.0,5.0,91,0.00,,,0.02,176.000000,,2013-03-11 23:12:00,
2013-03-11 16:21:00,41.0,39.0,-100.00,North,8,2.0,5.0,91,0.00,,,0.02,176.000000,,2013-03-11 23:21:00,
2013-03-11 16:53:00,40.0,38.0,-100.00,NNE,29,1.0,6.0,92,0.00,,,0.02,119.000000,,2013-03-11 23:53:00,
2013-03-11 17:02:00,40.0,38.0,-100.00,NNE,29,1.0,6.0,92,0.00,,,0.02,119.000000,,2013-03-12 00:02:00,
2013-03-11 17:12:00,40.0,38.0,-100.00,NNE,29,1.0,6.0,92,0.00,,,0.02,119.000000,,2013-03-12 00:12:00,
2013-03-11 17:22:00,40.0,38.0,-100.00,NNE,29,1.0,6.0,92,0.00,,,0.02,119.000000,,2013-03-12 00:22:00,
2013-03-11 17:53:00,40.0,38.0,-100.00,NE,40,1.0,4.0,94,0.04,,,0.06,59.000000,,2013-03-12 00:53:00,
2013-03-11 18:02:00,40.0,38.0,-100.00,NE,40,1.0,4.0,94,0.04,,,0.06,59.000000,,2013-03-12 01:02:00,
2013-03-11 18:12:00,40.0,38.0,-100.00,NE,40,1.0,4.0,94,0.04,,,0.06,59.000000,,2013-03-12 01:12:00,
2013-03-11 18:22:00,40.0,38.0,-100.00,NE,40,1.0,4.0,94,0.04,,,0.06,59.000000,,2013-03-12 01:22:00,
2013-03-11 18:52:00,39.0,38.0,-100.00,NE,37,1.0,3.0,96,0.03,,,0.09,37.000000,,2013-03-12 01:52:00,
2013-03-11 19:02:00,39.0,38.0,-100.00,NE,37,1.0,3.0,96,0.03,,,0.09,37.000000,,2013-03-12 02:02:00,
2013-03-11 19:12:00,39.0,38.0,-100.00,NE,37,1.0,3.0,96,0.03,,,0.09,37.000000,,2013-03-12 02:12:00,
2013-03-11 19:22:00,39.0,38.0,-100.00,NE,37,1.0,3.0,96,0.03,,,0.09,37.000000,,2013-03-12 02:22:00,
2013-03-11 19:52:00,38.0,37.0,-100.00,NE,46,1.0,3.0,97,0.03,,,0.12,5.000000,,2013-03-12 02:52:00,
2013-03-11 20:02:00,38.0,37.0,-100.00,NE,46,1.0,3.0,97,0.03,,,0.12,5.000000,,2013-03-12 03:02:00,
2013-03-11 20:12:00,38.0,37.0,-100.00,NE,46,1.0,3.0,97,0.03,,,0.12,5.000000,,2013-03-12 03:12:00,
2013-03-11 20:22:00,38.0,37.0,-100.00,NE,46,1.0,3.0,97,0.03,,,0.12,5.000000,,2013-03-12 03:22:00,
2013-03-11 20:52:00,39.0,38.0,-100.00,SSE,147,2.0,7.0,98,0.02,,,0.13,0.000000,,2013-03-12 03:52:00,
2013-03-11 21:02:00,39.0,38.0,-100.00,SSE,147,2.0,7.0,98,0.02,,,0.13,0.000000,,2013-03-12 04:02:00,
2013-03-11 21:12:00,39.0,38.0,-100.00,SSE,147,2.0,7.0,98,0.02,,,0.13,0.000000,,2013-03-12 04:12:00,
2013-03-11 21:22:00,39.0,38.0,-100.00,SSE,147,2.0,7.0,98,0.02,,,0.13,0.000000,,2013-03-12 04:22:00,
2013-03-11 21:52:00,41.0,40.0,-100.00,SSW,212,2.0,12.0,97,0.07,,,0.20,0.000000,,2013-03-12 04:52:00,
2013-03-11 22:02:00,41.0,40.0,-100.00,SSW,212,2.0,12.0,97,0.07,,,0.20,0.000000,,2013-03-12 05:02:00,
2013-03-11 22:12:00,41.0,40.0,-100.00,SSW,212,2.0,12.0,97,0.07,,,0.20,0.000000,,2013-03-12 05:12:00,
2013-03-11 22:21:00,41.0,40.0,-100.00,SSW,212,2.0,12.0,97,0.07,,,0.20,0.000000,,2013-03-12 05:21:00,
2013-03-11 22:52:00,42.0,41.0,-100.00,SE,146,2.0,10.0,97,0.12,,,0.32,0.000000,,2013-03-12 05:52:00,
2013-03-11 23:02:00,42.0,41.0,-100.00,SE,146,2.0,10.0,97,0.12,,,0.32,0.000000,,2013-03-12 06:02:00,
2013-03-11 23:11:00,42.0,41.0,-100.00,SE,146,2.0,10.0,97,0.12,,,0.32,0.000000,,2013-03-12 06:11:00,
2013-03-11 23:22:00,42.0,41.0,-100.00,SE,146,2.0,10.0,97,0.12,,,0.32,0.000000,,2013-03-12 06:22:00,
2013-03-11 23:52:00,43.0,42.0,-100.00,South,186,3.0,16.0,95,0.13,,,0.45,0.000000,,2013-03-12 06:52:00,